Regional Weather Roundup
Issued by NWS

Home | Current Version | Previous Version | Graphics & Text | Print | Product List | Glossary On
Versions: 1 2 3 4 5 6 7 8 9 10 11 12 13 14 15 16 17 18 19 20 21 22 23 24 25 26 27 28 29 30 31 32 33 34 35 36 37 38 39 40 41 42 43 44 45 46 47 48 49 50
000
ASUS43 KOAX 231702
RWRNE

WEATHER ROUNDUP FOR NEBRASKA
NATIONAL WEATHER SERVICE OMAHA NE
1200 PM CDT WED JUL 23 2014

NOTES: SATELLITE DATA IS BEING USED TO AUGMENT CLOUD COVER ABOVE
       12000 FEET.
       "FAIR" INDICATES FEW OR NO CLOUDS BELOW 12,000 FEET WITH NO
       SIGNIFICANT WEATHER AND/OR OBSTRUCTIONS TO VISIBILITY.

  * THESE STATIONS DO NOT REPORT WEATHER SUCH AS RAIN...SNOW OR FOG.

NEZ001>004-019>022-054>056-231800-
NEBRASKA PANHANDLE

CITY           SKY/WX    TMP DP  RH WIND       PRES   REMARKS
SCOTTSBLUFF    SUNNY     82  60  47 SE16G24   30.30F
ALLIANCE       SUNNY     83  56  39 S21G26    30.31S
CHADRON        SUNNY     86  58  38 S20       30.22F
KIMBALL        CLOUDY    73  63  72 S18       30.36R
SIDNEY         MOSUNNY   81  63  54 SE16G29   30.34F
$$

NEZ057>060-069>072-079>082-231800-
SOUTHWEST NEBRASKA

CITY           SKY/WX    TMP DP  RH WIND       PRES   REMARKS
NORTH PLATTE   CLOUDY    71  64  78 VRB3      30.27F
IMPERIAL       PTSUNNY   73  62  68 W5        30.29R
LEXINGTON      CLOUDY    68  64  87 E13       30.27F
MCCOOK         CLOUDY    66  63  90 S10       30.29F
OGALLALA       MOSUNNY   75  61  61 E8        30.28F
$$

NEZ005>010-023>029-035>040-094-231800-
NORTH CENTRAL NEBRASKA

CITY           SKY/WX    TMP DP  RH WIND       PRES   REMARKS
VALENTINE      SUNNY     81  60  48 SE15G25   30.26F
AINSWORTH      MOSUNNY   76  58  54 E14G21    30.29S
BROKEN BOW     CLOUDY    73  60  63 SE20      30.26F
O`NEILL        MOSUNNY   77  49  36 E6        30.30R
ORD            CLOUDY    74  58  57 SE9       30.26F
THEDFORD       PTSUNNY   76  62  61 E14       30.27F
$$

NEZ041-046>049-061>064-073>077-083>087-231800-
SOUTH CENTRAL NEBRASKA

CITY           SKY/WX    TMP DP  RH WIND       PRES   REMARKS
GRAND ISLAND   CLOUDY    75  59  57 E10       30.26F
AURORA         CLOUDY    76  60  59 NE8       30.27S
HASTINGS       CLOUDY    73  57  57 CALM      30.28S
HEBRON         CLOUDY    79  60  52 NE9       30.24S
HOLDREGE       CLOUDY    67  63  87 E5        30.29S
KEARNEY *      CLOUDY    70  61  73 SW6       30.31R
YORK           PTSUNNY   75  63  64 NE10      30.26F
$$

NEZ011>018-030>034-042>045-231800-
NORTHEAST NEBRASKA

CITY           SKY/WX    TMP DP  RH WIND       PRES   REMARKS
NORFOLK        SUNNY     78  55  44 E9        30.26F
ALBION         PTSUNNY   75  57  53 SE7       30.28S
BLAIR          SUNNY     78  47  33 E8        30.23F
COLUMBUS *     MOSUNNY   79  57  47 NE3       30.26S
FREMONT        SUNNY     80  57  46 NE7       30.24F
TEKAMAH        SUNNY     80  61  52 NE7       30.23F
WAYNE          SUNNY     78  59  52 NE9       30.27S
$$

NEZ050>053-065>068-078-088>093-231800-
SOUTHEAST NEBRASKA

CITY           SKY/WX    TMP DP  RH WIND       PRES   REMARKS
LINCOLN        SUNNY     82  58  43 NE8       30.24F
OMAHA EPPLEY   MOSUNNY   80  57  45 CALM      30.23F
BEATRICE       SUNNY     79  63  58 NE9       30.23F
FALLS CITY     SUNNY     82  66  58 NE10      30.21F
NEBRASKA CITY  SUNNY     77  62  59 E7        30.23F
PLATTSMOUTH    SUNNY     80  58  47 NE6       30.23F
$$

NEZ044-045-051>053-067-231800-
OMAHA AREA

CITY           SKY/WX    TMP DP  RH WIND       PRES   REMARKS
OMAHA EPPLEY   MOSUNNY   80  57  45 CALM      30.23F
BLAIR          SUNNY     78  47  33 E8        30.23F
FREMONT        SUNNY     80  57  46 NE7       30.24F
MILLARD        SUNNY     79  58  48 E5        30.23F
OFFUTT AFB     SUNNY     81  61  51 NE6       30.22F
PLATTSMOUTH    SUNNY     80  58  47 NE6       30.23F
WAHOO          FAIR      80  58  46 E7        30.23F
$$



USA.gov is the U.S. government's official web portal to all federal, state and local government web resources and services.